Location: Condor
(52.3263°N, 114.5541°W)
Time: 21:32:42
(UTC+00:00)

Oscar 19 - Pass Details

Date: 11 December 2023
Orbit: 771 x 789 km, 98.9° (Epoch: 04 March)

Event Time Altitude Azimuth Distance (km) Brightness Sun altitude
Rises 12:03:50 0° 19° (NNE) 3,279 14.1 -31.3°
Reaches altitude 10° 12:06:15 10° 25° (NNE) 2,349 13.4 -30.9°
Maximum altitude 12:11:14 47° 100° (E) 1,034 11.5 -30.1°
Drops below altitude 10° 12:16:13 10° 174° (S) 2,343 13.2 -29.4°
Sets 12:18:37 0° 180° (S) 3,269 13.9 -29.0°
